TimeEDT,TemperatureF,Dew PointF,Humidity,Sea Level PressureIn,VisibilityMPH,Wind Direction,Wind SpeedMPH,Gust SpeedMPH,PrecipitationIn,Events,Conditions,WindDirDegrees,DateUTC
12:50 AM,69.8,64.4,83,29.97,7.0,Calm,Calm,-,0.05,Rain-Thunderstorm,Thunderstorms and Rain,0,2013-09-01 04:50:00
12:53 AM,66.9,66.0,97,29.93,5.0,NNW,3.5,-,0.06,Rain-Thunderstorm,Thunderstorms and Rain,330,2013-09-01 04:53:00
1:10 AM,69.8,66.2,88,29.97,5.0,WSW,4.6,-,0.07,Rain,Rain,240,2013-09-01 05:10:00
1:53 AM,68.0,66.0,93,29.89,8.0,South,5.8,-,0.12,Rain,Light Rain,190,2013-09-01 05:53:00
2:24 AM,68.0,66.2,94,29.90,10.0,South,10.4,-,0.01,,Scattered Clouds,190,2013-09-01 06:24:00
2:53 AM,68.0,64.9,90,29.83,10.0,SSW,9.2,-,0.01,,Clear,200,2013-09-01 06:53:00
3:53 AM,69.1,64.9,87,29.84,10.0,Calm,Calm,-,N/A,,Clear,0,2013-09-01 07:53:00
4:53 AM,69.1,66.0,90,29.84,10.0,SSE,3.5,-,N/A,,Overcast,150,2013-09-01 08:53:00
5:53 AM,68.0,64.9,90,29.84,10.0,SSW,3.5,-,0.00,Rain,Light Rain,210,2013-09-01 09:53:00
6:53 AM,69.1,66.0,90,29.85,7.0,SSW,4.6,-,0.15,Rain,Light Rain,200,2013-09-01 10:53:00
7:18 AM,69.8,66.2,88,29.89,10.0,SSW,3.5,-,0.01,Rain,Light Rain,200,2013-09-01 11:18:00
7:38 AM,69.8,66.2,88,29.89,10.0,Calm,Calm,-,0.02,Rain,Light Rain,0,2013-09-01 11:38:00
7:53 AM,69.1,66.0,90,29.86,10.0,Calm,Calm,-,0.02,Rain,Light Rain,0,2013-09-01 11:53:00
8:13 AM,69.8,66.2,88,29.88,10.0,ESE,3.5,-,0.00,,Scattered Clouds,110,2013-09-01 12:13:00
8:53 AM,71.1,66.9,87,29.87,10.0,Calm,Calm,-,0.00,,Mostly Cloudy,0,2013-09-01 12:53:00
9:35 AM,71.6,68.0,88,29.90,10.0,Calm,Calm,-,N/A,,Overcast,0,2013-09-01 13:35:00
9:51 AM,71.6,68.0,88,29.90,10.0,Calm,Calm,-,N/A,,Overcast,0,2013-09-01 13:51:00
9:53 AM,71.1,68.0,90,29.87,10.0,SE,3.5,-,N/A,,Overcast,140,2013-09-01 13:53:00
10:18 AM,73.4,69.8,88,29.90,10.0,SSE,5.8,-,N/A,,Mostly Cloudy,150,2013-09-01 14:18:00
10:53 AM,75.0,69.1,82,29.87,10.0,SSW,8.1,-,N/A,,Mostly Cloudy,200,2013-09-01 14:53:00
11:08 AM,75.2,69.8,83,29.91,10.0,SW,6.9,-,N/A,,Overcast,230,2013-09-01 15:08:00
11:53 AM,78.1,69.1,74,29.87,10.0,WSW,5.8,-,N/A,,Mostly Cloudy,240,2013-09-01 15:53:00
12:53 PM,79.0,69.1,72,29.87,10.0,WSW,5.8,-,N/A,,Mostly Cloudy,250,2013-09-01 16:53:00
1:49 PM,82.4,69.8,66,29.90,10.0,Variable,6.9,-,N/A,,Scattered Clouds,0,2013-09-01 17:49:00
1:53 PM,82.0,69.1,65,29.87,10.0,SW,5.8,-,N/A,,Scattered Clouds,230,2013-09-01 17:53:00
2:53 PM,84.9,68.0,57,29.85,10.0,West,10.4,-,N/A,,Clear,270,2013-09-01 18:53:00
3:53 PM,84.9,66.9,55,29.83,10.0,West,12.7,18.4,N/A,,Clear,280,2013-09-01 19:53:00
4:53 PM,84.9,66.9,55,29.82,10.0,West,13.8,-,N/A,,Partly Cloudy,260,2013-09-01 20:53:00
5:53 PM,82.0,64.9,56,29.83,10.0,West,8.1,-,N/A,,Scattered Clouds,280,2013-09-01 21:53:00
6:53 PM,81.0,66.9,62,29.83,10.0,West,3.5,-,N/A,,Clear,260,2013-09-01 22:53:00
7:53 PM,80.1,68.0,67,29.83,10.0,West,3.5,-,N/A,,Clear,260,2013-09-01 23:53:00
8:53 PM,79.0,69.1,72,29.85,10.0,Calm,Calm,-,N/A,,Overcast,0,2013-09-02 00:53:00
9:53 PM,78.1,69.1,74,29.86,10.0,West,4.6,-,N/A,,Overcast,270,2013-09-02 01:53:00
10:26 PM,78.8,69.8,74,29.91,10.0,WSW,3.5,-,N/A,,Overcast,240,2013-09-02 02:26:00
10:35 PM,78.8,69.8,74,29.90,10.0,SW,3.5,-,N/A,,Overcast,220,2013-09-02 02:35:00
10:53 PM,75.9,70.0,82,29.86,10.0,SSW,3.5,-,N/A,,Mostly Cloudy,200,2013-09-02 02:53:00
11:53 PM,75.0,68.0,79,29.86,10.0,SW,3.5,-,N/A,,Clear,230,2013-09-02 03:53:00